Starlink 32905

operational
NORAD ID: 62923 Int'l Des: 2025-027 Owner: SPXS Country: US Constellation: starlink
LEOCIRCULAR

Starlink 32905について

説明を読み込み中...

リアルタイム位置

3D地球を読み込み中...

次回通過

高度履歴

Altitude vs Time

uPlot chart will show altitude changes over time

軌道要素

1 62923U 25027S 25303.98736631 .00032756 00000-0 11939-2 0 9992
2 62923 43.0021 141.5656 0001209 262.7285 97.3429 15.27599193 41703
Epoch: Oct 30, 2025 • Age: 12 hours

現在のステータス

高度 484.1 km
速度 7.63 km/s
衛星直下点 30.16°N, 71.64°E
打ち上げ日 Feb 8, 2025
運用期間 0.7 years
タイプ internet

技術仕様

分類 Payload
質量 730.00 kg
乾燥質量 700.00 kg
総質量 730.00 kg
長さ 0.30 m
直径 4.10 m
スパン 29.00 m
形状 Box + pan
製造者 SPXS
バスタイプ Starlink V2M
フェーズステータス In Orbit
所有者/国 SPXS/US

大規模コンステレーション

Loading constellations...